[[{"header":{"parameterUnit":"m.s-1","parameterCategory":1,"la1":30.2992,"la2":30.254,"lo1":-89.0895,"lo2":-89.0443,"dy":0.0025,"dx":0.0025,"nx":19,"ny":19,"refTime":"2026-05-07T09:00:00:Z","depth":0,"parameterNumber":2,"parameterNumberName":"U-component_of_WINDS"},"data":[0,0,0,-3.4299,-3.4301,-3.4415,-3.4415,-3.4583,-3.4584,0,0,0,0,0,0,0,0,0,0,0,-3.4278,-3.4279,-3.4298,-3.4301,-3.4415,-3.4415,-3.4582,-3.4584,0,0,0,0,0,0,0,0,0,0,0,-3.4277,-3.4279,-3.4281,-3.4302,-3.4415,-3.4415,-3.4582,-3.4489,0,0,0,0,0,0,0,0,0,0,-3.4375,-3.4368,-3.4279,-3.4281,-3.4303,-3.4415,-3.4415,-3.4484,-3.4494,-3.4541,0,-3.4585,0,-3.4587,-3.4597,-3.4598,0,0,0,-3.4292,-3.4359,-3.4378,-3.4281,-3.4304,-3.4415,-3.4361,-3.4489,-3.4502,-3.4555,-3.4587,-3.4592,-3.459,-3.4598,-3.4599,-3.4894,-3.4896,0,0,-3.4286,-3.4306,-3.437,-3.4386,-3.437,-3.4357,-3.4365,-3.4496,-3.4533,-3.4587,-3.4596,-3.4593,-3.4599,-3.4601,-3.4893,-3.4895,0,0,0,-3.4274,-3.4302,-3.4316,-3.438,-3.4399,-3.4361,-3.4369,-3.4527,-3.453,-3.4598,-3.4595,-3.46,-3.4603,-3.4891,-3.4893,-3.5002,0,0,0,-3.427,-3.4295,-3.4314,-3.4328,-3.4397,-3.4464,-3.4397,-3.4521,-3.4535,-3.4594,-3.4601,-3.4605,-3.4888,-3.4892,-3.4994,-3.505,0,0,0,-3.4266,-3.4294,-3.4315,-3.4329,-3.4378,-3.4462,-3.4472,-3.4523,-3.4534,-3.4598,-3.4605,-3.4887,-3.4891,-3.4988,-3.5039,-3.5132,0,0,0,-3.4268,-3.4411,-3.4317,-3.4475,-3.4377,-3.4528,-3.4471,-3.4582,-3.465,-3.4601,-3.4889,-3.4893,-3.4986,-3.5032,-3.5126,-3.5214,-3.5253,0,0,-3.4459,-3.4435,-3.4526,-3.4445,-3.4617,-3.4509,-3.4697,-3.4741,-3.4729,-3.484,-3.4847,-3.4997,-3.5038,-3.5131,-3.5465,-3.5496,0,0,0,-3.4594,-3.466,-3.4701,-3.4765,-3.4801,-3.4837,-3.4849,-3.4865,-3.4958,-3.479,-3.5055,-3.5079,-3.5133,-3.5175,-3.5201,-3.5245,-3.4913,-3.4913,-3.4912,-3.4894,-3.487,-3.5019,-3.5009,-3.5072,-3.5083,-3.5132,-3.5155,-3.5115,-3.5177,-3.521,-3.5416,-3.5465,-3.5485,-3.5531,-3.5255,-3.5256,-3.5256,-3.5256,-3.5172,-3.5261,-3.5201,-3.5324,-3.5298,-3.5402,-3.5418,-3.5385,-3.5477,-3.5389,-3.5435,-3.5341,-3.552,-3.5559,-3.5264,-3.5263,-3.5262,-3.5261,-3.5261,-3.5365,-3.5404,-3.542,-3.5509,-3.5581,-3.5566,-3.5657,-3.563,-3.5606,-3.5652,-3.5683,-3.5681,-3.5676,-3.5669,-3.5669,-3.567,-3.5671,-3.5671,-3.5672,-3.556,-3.5574,-3.5654,-3.5703,-3.5739,-3.5785,-3.5796,-3.5832,-3.5865,-3.5839,-3.5839,-3.5791,-3.5541,-3.5479,-3.5683,-3.5681,-3.5679,-3.5678,-3.5677,-3.585,-3.578,-3.5903,-3.594,-3.5994,-3.6067,-3.6031,-3.6106,-3.6132,-3.6178,-3.612,-3.594,-3.5913,-3.5892,-3.584,-3.6125,-3.6125,-3.6125,-3.6125,-3.6014,-3.5997,-3.6116,-3.6176,-3.6233,-3.6212,-3.6352,-3.6362,-3.6361,-3.6376,-3.6331,-3.6259,-3.6239,-3.6224,-3.6196,-3.6147,-3.6504,-3.6504,-3.6505,-3.6191,-3.6178,-3.6302,-3.6298,-3.6338,-3.6373,-3.6504,-3.6576,-3.6561,-3.6519,-3.6386,-3.637,-3.6255,-3.6219,-3.6175,-3.6132,-3.6041,0,0]},{"header":{"parameterUnit":"m.s-1","parameterCategory":1,"la1":30.2992,"la2":30.254,"lo1":-89.0895,"lo2":-89.0443,"dy":0.0025,"dx":0.0025,"nx":19,"ny":19,"refTime":"2026-05-07T09:00:00:Z","depth":0,"parameterNumber":3,"parameterNumberName":"V-component_of_WINDS"},"data":[0,0,0,4.2399,4.24,4.2455,4.2455,4.253,4.2531,0,0,0,0,0,0,0,0,0,0,0,4.2388,4.2388,4.2399,4.24,4.2455,4.2455,4.253,4.2531,0,0,0,0,0,0,0,0,0,0,0,4.2387,4.2388,4.2389,4.24,4.2455,4.2455,4.253,4.2486,0,0,0,0,0,0,0,0,0,0,4.2432,4.2428,4.2388,4.2389,4.2401,4.2455,4.2455,4.2484,4.2489,4.2509,0,4.2529,0,4.2532,4.2537,4.2537,0,0,0,4.2395,4.2424,4.2434,4.2389,4.2401,4.2454,4.2429,4.2487,4.2492,4.2515,4.253,4.2533,4.2533,4.2537,4.2538,4.267,4.2671,0,0,4.2392,4.24,4.243,4.2438,4.2432,4.2427,4.243,4.249,4.2506,4.2531,4.2534,4.2534,4.2538,4.2538,4.267,4.2671,0,0,0,4.2387,4.2398,4.2407,4.2435,4.2444,4.2429,4.2433,4.2503,4.2506,4.2535,4.2535,4.2538,4.2539,4.2669,4.267,4.2718,0,0,0,4.2385,4.2395,4.2405,4.241,4.2444,4.2475,4.2445,4.2502,4.2508,4.2535,4.2538,4.254,4.2668,4.2669,4.2715,4.2739,0,0,0,4.2382,4.2394,4.2404,4.2411,4.2435,4.2474,4.2479,4.2503,4.2508,4.2537,4.254,4.2667,4.2669,4.2712,4.2734,4.2776,0,0,0,4.2381,4.2446,4.2405,4.2477,4.2434,4.2504,4.2479,4.253,4.2561,4.2539,4.2668,4.267,4.2711,4.2731,4.2773,4.2812,4.2829,0,0,4.2467,4.2456,4.2498,4.2464,4.2543,4.2495,4.2581,4.2601,4.2596,4.2646,4.2649,4.2716,4.2734,4.2775,4.2925,4.2939,0,0,0,4.2528,4.2558,4.2577,4.2608,4.2626,4.2643,4.265,4.2658,4.2699,4.2624,4.2743,4.2753,4.2777,4.2795,4.2807,4.2826,4.2679,4.2679,4.2679,4.2658,4.265,4.2718,4.2717,4.2747,4.2754,4.2777,4.2788,4.277,4.2798,4.2812,4.2904,4.2926,4.2934,4.2955,4.2833,4.2833,4.2833,4.2834,4.2781,4.2822,4.2799,4.2857,4.2847,4.2895,4.2904,4.289,4.2932,4.2893,4.2913,4.287,4.295,4.2967,4.2837,4.2836,4.2836,4.2836,4.2835,4.2865,4.2883,4.2893,4.2936,4.2971,4.2967,4.3009,4.2998,4.2989,4.3009,4.3022,4.3022,4.3018,4.3017,4.3017,4.3017,4.3018,4.3018,4.3018,4.2947,4.2956,4.2994,4.302,4.3038,4.3061,4.3069,4.3086,4.3103,4.3092,4.3092,4.307,4.296,4.2932,4.3023,4.3022,4.3021,4.3021,4.3021,4.3073,4.3043,4.3101,4.312,4.3149,4.3183,4.3171,4.3207,4.322,4.324,4.3215,4.3136,4.3124,4.3114,4.3091,4.3218,4.3218,4.3218,4.3218,4.3142,4.3136,4.3193,4.3223,4.3252,4.3247,4.3311,4.3318,4.332,4.3327,4.3308,4.3276,4.3267,4.326,4.3248,4.3225,4.3384,4.3384,4.3384,4.3218,4.3215,4.3272,4.3276,4.3298,4.3317,4.3377,4.3411,4.3407,4.339,4.3332,4.3325,4.3274,4.3258,4.3238,4.3219,4.3178,0,0]}]]